Location: Wildlife_Club
(35.6000°N, 81.4330°W)
Time: 21:07:17
(UTC-04:00)

Amateur Radio Satellites - All Passes

Search period start: 28 March 2015 20:37
Search period end: 29 March 2015 20:37
Location: Wildlife_Club, 35.6000°N, 81.4330°W

Satellite Date Start Highest point End Downlink Frequencies (MHz)
Time Altitude Azimuth
BEESAT 2 28 Mar 20:37:56 20:42:05 83° 60° (ENE) 20:46:09 435.950
PRISM 28 Mar 20:38:19 20:42:11 37° 287° (WNW) 20:45:59 437.425
AUBIESAT-1 28 Mar 20:38:34 20:39:25 10° 301° (WNW) 20:39:59 437.475
AAUSAT CUBESAT 2 28 Mar 20:52:36 20:55:09 16° 69° (ENE) 20:57:52 437.432
SEEDS 28 Mar 20:54:18 20:57:41 25° 71° (ENE) 21:01:11 437.485
CUBESAT XI-V 28 Mar 21:03:27 21:06:44 19° 291° (WNW) 21:09:51 437.345
CINEMA 3 28 Mar 21:07:32 21:10:05 16° 70° (ENE) 21:12:46 145.822/145.860
Oscar 11 28 Mar 21:12:00 21:13:55 13° 68° (ENE) 21:16:04 145.826/435.025
CUSAT 1 28 Mar 21:13:01 21:15:11 18° 97° (E) 21:17:14 437.405
BEESAT 3 28 Mar 21:16:35 21:20:08 28° 247° (WSW) 21:23:35 437.485
COMPASS 1 28 Mar 21:17:35 21:21:25 37° 73° (ENE) 21:25:20 437.405
DOVE 4 28 Mar 21:19:53 21:24:07 48° 75° (ENE) 21:28:12 437.250
UWE-3 28 Mar 21:24:32 21:24:44 10° 67° (ENE) 21:25:12 435.000/436.395/437.385
CUBEBUG 2 28 Mar 21:25:53 21:27:52 14° 69° (ENE) 21:30:03 437.445
HO-68 28 Mar 21:26:11 21:33:21 89° 75° (ENE) 21:40:35 435.675
GOMX 1 28 Mar 21:26:38 21:31:15 89° 257° (WSW) 21:35:36 467.674
STRAND 1 28 Mar 21:28:54 21:33:00 24° 292° (WNW) 21:36:58 437.568
ZACube-1 28 Mar 21:34:24 21:35:17 11° 67° (ENE) 21:36:25 437.345
CANX-2 28 Mar 21:44:32 21:48:42 58° 260° (W) 21:52:55 2200.000
AIST 2 28 Mar 21:44:48 21:48:57 53° 244° (WSW) 21:52:59 435.215
DANDE 28 Mar 21:56:06 21:59:29 69° 99° (E) 22:02:18 436.750
CUTE 1.7 + AOD 2 28 Mar 21:58:47 22:02:49 43° 262° (W) 22:06:52 437.475
DELFI C3 28 Mar 22:11:12 22:15:05 47° 75° (ENE) 22:19:03 145.870
BRITE-PL 28 Mar 22:15:25 22:18:41 17° 266° (W) 22:21:38 437.365/2234.400
GONETS M04 28 Mar 22:15:59 22:22:29 22° 294° (WNW) 22:28:37
UKube-1 28 Mar 22:16:16 22:19:54 27° 71° (ENE) 22:23:37 .
ISS 28 Mar 22:23:04 22:24:50 14° 129° (SE) 22:26:43 145.825
DX 1 28 Mar 22:24:58 22:28:58 37° 73° (ENE) 22:33:00 434.975-435.025
AAUSAT CUBESAT 2 28 Mar 22:26:44 22:30:33 34° 263° (W) 22:34:22 437.432
HUMSAT D 28 Mar 22:29:30 22:32:45 24° 71° (ENE) 22:36:04 437.325/437.525
SEEDS 28 Mar 22:30:07 22:33:28 22° 266° (W) 22:36:46 437.485
RS-15 28 Mar 22:32:19 22:41:07 26° 325° (NW) 22:49:46 29.354- 29.394
CINEMA 3 28 Mar 22:43:14 22:47:06 33° 263° (W) 22:50:53 145.822/145.860
Oscar 11 28 Mar 22:45:35 22:49:44 47° 261° (W) 22:53:56 145.826/435.025
FUNcube-1 28 Mar 22:54:31 22:58:40 79° 258° (WSW) 23:02:49 145.935
COMPASS 1 28 Mar 22:54:55 22:57:20 14° 269° (W) 22:59:34 437.405
UWE-3 28 Mar 22:56:48 23:00:52 56° 260° (W) 23:04:57 435.000/436.395/437.385
CUBEBUG 2 28 Mar 23:00:21 23:04:17 40° 262° (W) 23:08:13 437.445
DOVE 4 28 Mar 23:00:30 23:02:12 12° 269° (W) 23:03:36 437.250
VELOX 1 28 Mar 23:01:36 23:05:43 39° 73° (ENE) 23:09:52 145.980
CUBEBUG 1 28 Mar 23:05:14 23:08:14 19° 69° (ENE) 23:11:21 437.445
AISAT 28 Mar 23:05:48 23:10:02 45° 74° (ENE) 23:14:17 437.250
ZACube-1 28 Mar 23:07:13 23:11:16 53° 260° (W) 23:15:19 437.345
UNISAT 6 28 Mar 23:09:23 23:12:42 20° 93° (E) 23:16:12 437.425
NANOSAT C BR1 28 Mar 23:18:30 23:18:47 10° 90° (E) 23:19:22 145.865
HO-68 28 Mar 23:18:36 23:22:05 13° 272° (W) 23:25:01 435.675
TIGRISAT 28 Mar 23:19:40 23:23:26 25° 95° (E) 23:27:18 435.000
POLYITAN 1 28 Mar 23:20:56 23:22:21 12° 90° (E) 23:24:02 437.675
50 SAT 28 Mar 23:24:08 23:28:01 73° 77° (ENE) 23:31:56 437.505
ESTCUBE 1 28 Mar 23:32:35 23:36:52 43° 73° (ENE) 23:41:12 437.505/2401.250
ANTELSAT 28 Mar 23:48:59 23:53:30 57° 100° (E) 23:58:06 437.575/2403.000
DELFI C3 28 Mar 23:49:34 23:50:38 11° 270° (W) 23:51:26 145.870
UKube-1 28 Mar 23:52:39 23:56:04 22° 265° (W) 23:59:23 .
QB50P1 28 Mar 23:56:43 00:00:29 32° 97° (E) 00:04:19 145.935-145.965
ISS 28 Mar 23:57:52 00:01:00 43° 322° (NW) 00:04:08 145.825
DUCHIFAT 1 28 Mar 23:59:00 00:02:49 33° 97° (E) 00:06:39 145.980
DX 1 29 Mar 00:02:32 00:05:23 16° 267° (W) 00:08:04 434.975-435.025
HUMSAT D 29 Mar 00:05:14 00:08:29 22° 266° (W) 00:11:40 437.325/437.525
QB50P2 29 Mar 00:11:01 00:15:08 49° 99° (E) 00:19:16 145.880/145.840
PCSat 29 Mar 00:17:39 00:22:12 27° 53° (NE) 00:26:49 145.827
YUBILEINY 29 Mar 00:18:10 00:23:35 18° 64° (ENE) 00:29:29 435.215
VELOX 1 29 Mar 00:39:38 00:42:29 16° 268° (W) 00:45:08 145.980
POPSAT HIP 1 29 Mar 00:39:54 00:44:08 74° 283° (WNW) 00:48:21 437.405
CUBEBUG 1 29 Mar 00:40:21 00:44:24 34° 263° (W) 00:48:23 437.445
BUGSAT 1 29 Mar 00:43:09 00:47:11 84° 101° (ESE) 00:51:13 437.445
TISAT 1 29 Mar 00:44:19 00:48:24 50° 75° (ENE) 00:52:30 437.305
AISAT 29 Mar 00:44:32 00:46:55 14° 269° (W) 00:49:05 437.250
UNISAT 6 29 Mar 00:45:25 00:49:35 34° 288° (WNW) 00:53:44 437.425
NANOSAT C BR1 29 Mar 00:50:55 00:55:03 54° 285° (WNW) 00:59:09 145.865
SPROUT 29 Mar 00:51:50 00:56:07 76° 77° (ENE) 01:00:25 437.525
POLYITAN 1 29 Mar 00:54:31 00:58:37 47° 286° (WNW) 01:02:42 437.675
RS-15 29 Mar 00:55:05 00:59:21 12° 360° (N) 01:03:41 29.354- 29.394
TIGRISAT 29 Mar 00:56:16 01:00:08 27° 289° (WNW) 01:03:59 435.000
ESTCUBE 1 29 Mar 01:11:16 01:14:00 15° 269° (W) 01:16:32 437.505/2401.250
SWISSCUBE 29 Mar 01:11:46 01:14:54 18° 68° (ENE) 01:18:12 437.505
BEESAT 29 Mar 01:14:54 01:17:59 18° 68° (ENE) 01:21:16 436.000
ANTELSAT 29 Mar 01:27:42 01:29:54 13° 293° (WNW) 01:31:52 437.575/2403.000
QB50P1 29 Mar 01:33:14 01:36:11 18° 291° (WNW) 01:39:00 145.935-145.965
DUCHIFAT 1 29 Mar 01:35:34 01:38:26 17° 291° (WNW) 01:41:09 145.980
QB50P2 29 Mar 01:48:49 01:50:41 12° 293° (WNW) 01:52:19 145.880/145.840
ITUPSAT 1 29 Mar 01:59:35 02:04:14 52° 74° (ENE) 02:08:56 437.325
PCSat 29 Mar 02:00:44 02:05:43 37° 250° (WSW) 02:10:36 145.827
YUBILEINY 29 Mar 02:12:49 02:21:41 83° 265° (W) 02:30:26 435.215
Oscar 19 29 Mar 02:21:40 02:26:23 35° 97° (E) 02:31:08 437.125/150
TISAT 1 29 Mar 02:23:20 02:24:34 11° 270° (W) 02:25:30 437.305
Gurwin Techsat 1B 29 Mar 02:35:17 02:35:46 10° 88° (E) 02:36:42 435.225
SWISSCUBE 29 Mar 02:47:55 02:52:29 42° 262° (W) 02:57:02 437.505
BEESAT 29 Mar 02:51:00 02:55:33 42° 261° (W) 03:00:06 436.000
KKS-1 29 Mar 03:08:50 03:13:07 51° 74° (ENE) 03:17:26 437.445
RS-15 29 Mar 03:09:00 03:17:45 25° 35° (NE) 03:27:10 29.354- 29.394
SO-50 29 Mar 03:25:08 03:26:59 12° 42° (NE) 03:29:03 436.795
ITAMSAT 1 29 Mar 03:25:39 03:30:37 46° 99° (E) 03:35:35 435.822/435.867
ITUPSAT 1 29 Mar 03:39:53 03:42:30 14° 269° (W) 03:44:52 437.325
STARS 29 Mar 03:42:06 03:46:28 78° 76° (ENE) 03:50:52 437.465
Oscar 19 29 Mar 04:01:25 04:05:34 24° 291° (WNW) 04:09:36 437.125/150
Gurwin Techsat 1B 29 Mar 04:11:08 04:16:28 78° 285° (WNW) 04:21:46 435.225
YUBILEINY 29 Mar 04:13:26 04:17:20 13° 281° (W) 04:20:29 435.215
M-CUBED/EXP-1 PRIME 29 Mar 04:37:53 04:39:33 12° 60° (ENE) 04:41:26 437.505
MOZHAYETS 4 29 Mar 04:40:23 04:44:09 26° 71° (ENE) 04:48:03
KKS-1 29 Mar 04:48:17 04:50:07 12° 270° (W) 04:51:42 437.445
AIST 1 29 Mar 04:48:22 04:52:41 57° 94° (E) 04:57:01
O/OREOS (USA 219) 29 Mar 04:50:42 04:55:16 79° 110° (ESE) 04:59:54 437.305
AO-7 29 Mar 04:51:35 04:59:07 39° 98° (E) 05:06:45 29.400- 29.500
JAS-2 29 Mar 05:01:50 05:08:59 42° 95° (E) 05:15:37 435.910
SO-50 29 Mar 05:03:23 05:08:22 86° 60° (ENE) 05:13:15 436.795
ITAMSAT 1 29 Mar 05:06:10 05:09:49 19° 293° (WNW) 05:13:17 435.822/435.867
HORYU 2 29 Mar 05:15:34 05:20:03 67° 285° (WNW) 05:24:31 437.375
RS-15 29 Mar 05:20:42 05:32:18 82° 59° (ENE) 05:44:26 29.354- 29.394
VERMONT LUNAR 29 Mar 05:41:51 05:44:58 37° 150° (SSE) 05:48:06 437.305
AUBIESAT-1 29 Mar 05:45:55 05:49:49 69° 71° (ENE) 05:54:06 437.475
M-CUBED/EXP-1 PRIME 29 Mar 06:10:09 06:13:56 51° 256° (WSW) 06:18:06 437.505
MOZHAYETS 4 29 Mar 06:17:28 06:21:21 26° 265° (W) 06:25:11
PHONESAT 2.4 29 Mar 06:18:32 06:21:38 30° 149° (SSE) 06:24:47 2401.200-2431.200
CUBESAT XI-V 29 Mar 06:26:02 06:29:55 27° 71° (ENE) 06:33:54 437.345
ISS 29 Mar 06:27:40 06:30:49 51° 39° (NE) 06:33:58 145.825
AIST 1 29 Mar 06:30:05 06:30:50 10° 291° (WNW) 06:31:16
GONETS M04 29 Mar 06:30:38 06:38:01 30° 71° (ENE) 06:45:39
AO-7 29 Mar 06:44:17 06:51:59 43° 295° (WNW) 06:59:34 29.400- 29.500
JAS-2 29 Mar 06:46:56 06:53:53 36° 293° (WNW) 07:00:12 435.910
STRAND 1 29 Mar 07:02:18 07:06:59 37° 71° (ENE) 07:11:44 437.568
VERMONT LUNAR 29 Mar 07:19:22 07:22:39 50° 346° (NNW) 07:25:55 437.305
CUTE-I 29 Mar 07:22:42 07:27:48 47° 99° (E) 07:32:54 437.470
Cubesat XI-IV 29 Mar 07:22:45 07:27:52 47° 99° (E) 07:32:59 437.490
PRISM 29 Mar 07:25:06 07:29:18 78° 258° (WSW) 07:33:33 437.425
RS-15 29 Mar 07:35:01 07:43:50 24° 256° (WSW) 07:52:12 29.354- 29.394
CUSAT 1 29 Mar 07:50:02 07:53:18 20° 77° (ENE) 07:57:24 437.405
PHONESAT 2.4 29 Mar 07:56:23 07:59:53 60° 344° (NNW) 08:03:22 2401.200-2431.200
CUBESAT XI-V 29 Mar 08:03:20 08:07:19 26° 265° (W) 08:11:14 437.345
ISS 29 Mar 08:05:36 08:06:55 12° 232° (SW) 08:08:07 145.825
GONETS M04 29 Mar 08:26:47 08:35:18 53° 269° (W) 08:43:43
DANDE 29 Mar 08:36:24 08:40:22 42° 81° (E) 08:45:41 436.750
STRAND 1 29 Mar 08:42:18 08:46:19 22° 266° (W) 08:50:12 437.568
BRITE-PL 29 Mar 08:44:23 08:46:19 13° 92° (E) 08:48:31 437.365/2234.400
VERMONT LUNAR 29 Mar 08:57:38 09:00:43 33° 2° (N) 09:03:50 437.305
HO-68 29 Mar 08:58:47 09:03:31 19° 91° (E) 09:08:36 435.675
CUTE-I 29 Mar 09:03:46 09:07:34 20° 293° (WNW) 09:11:12 437.470
Cubesat XI-IV 29 Mar 09:03:52 09:07:40 19° 293° (WNW) 09:11:16 437.490
DOVE 4 29 Mar 09:22:27 09:25:05 16° 93° (E) 09:28:01 437.250
GOMX 1 29 Mar 09:31:14 09:35:02 30° 97° (E) 09:39:04 467.674
CUSAT 1 29 Mar 09:31:46 09:36:00 37° 263° (W) 09:41:26 437.405
CANX-2 29 Mar 09:33:11 09:36:56 29° 96° (E) 09:40:44 2200.000
PHONESAT 2.4 29 Mar 09:35:17 09:38:34 35° 360° (N) 09:41:52 2401.200-2431.200
CUTE 1.7 + AOD 2 29 Mar 09:46:58 09:50:59 38° 98° (E) 09:55:01 437.475
UNISAT 6 29 Mar 10:07:42 10:09:11 12° 67° (ENE) 10:10:55 437.425
AAUSAT CUBESAT 2 29 Mar 10:12:32 10:16:35 44° 98° (E) 10:20:37 437.432
SEEDS 29 Mar 10:16:26 10:20:44 73° 101° (ESE) 10:25:00 437.485
TIGRISAT 29 Mar 10:17:10 10:19:30 15° 68° (ENE) 10:22:02 435.000
DANDE 29 Mar 10:20:58 10:23:43 15° 264° (W) 10:26:36 436.750
BRITE-PL 29 Mar 10:21:07 10:25:06 42° 286° (WNW) 10:29:15 437.365/2234.400
BEESAT 2 29 Mar 10:29:38 10:33:15 31° 114° (ESE) 10:36:58 435.950
VERMONT LUNAR 29 Mar 10:35:22 10:38:44 67° 19° (NNE) 10:42:05 437.305
Oscar 11 29 Mar 10:35:54 10:39:57 37° 97° (E) 10:44:00 145.826/435.025
COMPASS 1 29 Mar 10:39:19 10:43:34 73° 283° (WNW) 10:47:47 437.405
CINEMA 3 29 Mar 10:39:57 10:44:22 64° 101° (E) 10:48:59 145.822/145.860
HO-68 29 Mar 10:44:43 10:51:53 68° 288° (WNW) 10:58:59 435.675
ANTELSAT 29 Mar 10:45:43 10:49:30 33° 72° (ENE) 10:53:24 437.575/2403.000
FUNcube-1 29 Mar 10:46:10 10:49:45 24° 95° (E) 10:53:27 145.935
QB50P1 29 Mar 10:47:43 10:50:26 17° 69° (ENE) 10:53:18 145.935-145.965
UWE-3 29 Mar 10:49:25 10:53:27 34° 97° (E) 10:57:36 435.000/436.395/437.385
DUCHIFAT 1 29 Mar 10:49:40 10:52:27 18° 69° (ENE) 10:55:21 145.980
CUBEBUG 2 29 Mar 10:53:43 10:58:01 47° 99° (E) 11:02:27 437.445
ZACube-1 29 Mar 10:58:37 11:02:38 35° 97° (E) 11:06:45 437.345
DOVE 4 29 Mar 10:58:59 11:03:02 38° 286° (WNW) 11:07:14 437.250
QB50P2 29 Mar 11:01:39 11:05:07 26° 71° (ENE) 11:08:39 145.880/145.840
AISAT 29 Mar 11:02:25 11:03:12 11° 90° (E) 11:04:19 437.250
BEESAT 3 29 Mar 11:06:28 11:10:33 76° 300° (WNW) 11:14:41 437.485
50 SAT 29 Mar 11:07:03 11:08:25 12° 91° (E) 11:10:02 437.505
CANX-2 29 Mar 11:09:28 11:12:44 20° 290° (WNW) 11:15:51 2200.000
GOMX 1 29 Mar 11:09:54 11:13:04 20° 289° (WNW) 11:16:13 467.674
PHONESAT 2.4 29 Mar 11:13:45 11:17:15 59° 16° (NNE) 11:20:46 2401.200-2431.200
CUTE 1.7 + AOD 2 29 Mar 11:23:56 11:26:38 16° 291° (WNW) 11:29:10 437.475
DELFI C3 29 Mar 11:28:49 11:32:53 62° 284° (WNW) 11:36:54 145.870
POPSAT HIP 1 29 Mar 11:29:46 11:33:52 54° 75° (ENE) 11:38:01 437.405
BUGSAT 1 29 Mar 11:30:24 11:34:16 38° 73° (ENE) 11:38:07 437.445
ESTCUBE 1 29 Mar 11:30:45 11:32:00 11° 89° (E) 11:33:33 437.505/2401.250
AIST 2 29 Mar 11:39:40 11:43:52 67° 118° (ESE) 11:48:08 435.215
NANOSAT C BR1 29 Mar 11:40:21 11:44:34 74° 77° (ENE) 11:48:46 145.865
UNISAT 6 29 Mar 11:41:26 11:45:35 51° 261° (W) 11:49:47 437.425
UKube-1 29 Mar 11:42:03 11:46:24 77° 102° (ESE) 11:50:42 .
POLYITAN 1 29 Mar 11:44:24 11:48:37 85° 77° (ENE) 11:52:51 437.675
AAUSAT CUBESAT 2 29 Mar 11:49:40 11:51:52 14° 292° (WNW) 11:53:53 437.432
HUMSAT D 29 Mar 11:51:09 11:55:25 71° 102° (ESE) 11:59:42 437.325/437.525
TIGRISAT 29 Mar 11:51:59 11:55:58 39° 262° (W) 11:59:59 435.000
DX 1 29 Mar 11:51:59 11:56:20 76° 284° (WNW) 12:00:39 434.975-435.025
BEESAT 2 29 Mar 12:08:17 12:11:29 21° 310° (NW) 12:14:37 435.950
Oscar 11 29 Mar 12:13:00 12:15:53 17° 291° (WNW) 12:18:35 145.826/435.025
VERMONT LUNAR 29 Mar 12:13:28 12:16:16 24° 213° (SSW) 12:19:02 437.305
CINEMA 3 29 Mar 12:20:04 12:21:12 11° 292° (WNW) 12:22:04 145.822/145.860
QB50P1 29 Mar 12:22:17 12:26:07 33° 263° (W) 12:29:55 145.935-145.965
FUNcube-1 29 Mar 12:22:22 12:26:02 25° 288° (WNW) 12:29:40 145.935
ANTELSAT 29 Mar 12:23:35 12:26:27 17° 268° (W) 12:29:12 437.575/2403.000
DUCHIFAT 1 29 Mar 12:24:17 12:28:05 32° 263° (W) 12:31:50 145.980
UWE-3 29 Mar 12:26:37 12:29:48 19° 290° (WNW) 12:32:53 435.000/436.395/437.385
VELOX 1 29 Mar 12:31:16 12:35:39 66° 284° (WNW) 12:40:00 145.980
CUBEBUG 1 29 Mar 12:31:53 12:36:07 53° 100° (E) 12:40:21 437.445
CUBEBUG 2 29 Mar 12:31:57 12:34:25 14° 291° (WNW) 12:36:41 437.445
ZACube-1 29 Mar 12:35:41 12:38:47 19° 290° (WNW) 12:41:48 437.345
AISAT 29 Mar 12:35:55 12:40:15 56° 286° (WNW) 12:44:33 437.250
HO-68 29 Mar 12:36:28 12:38:30 11° 304° (NW) 12:40:01 435.675
QB50P2 29 Mar 12:37:41 12:41:01 22° 266° (W) 12:44:15 145.880/145.840
50 SAT 29 Mar 12:39:46 12:43:37 43° 286° (WNW) 12:47:27 437.505
SPROUT 29 Mar 12:42:48 12:45:26 16° 92° (E) 12:48:13 437.525
PHONESAT 2.4 29 Mar 12:52:19 12:55:30 31° 211° (SSW) 12:58:41 2401.200-2431.200
ESTCUBE 1 29 Mar 13:04:53 13:09:19 55° 285° (WNW) 13:13:42 437.505/2401.250
BUGSAT 1 29 Mar 13:07:36 13:09:57 14° 268° (W) 13:12:04 437.445
YUBILEINY 29 Mar 13:15:50 13:22:02 23° 84° (E) 13:28:41 435.215
AIST 2 29 Mar 13:20:59 13:22:59 13° 315° (NW) 13:24:48 435.215
Oscar 19 29 Mar 13:35:43 13:40:23 38° 71° (ENE) 13:45:07 437.125/150
Gurwin Techsat 1B 29 Mar 13:52:31 13:55:03 14° 65° (ENE) 13:57:51 435.225
ITUPSAT 1 29 Mar 14:04:28 14:07:28 17° 92° (E) 14:10:39 437.325
TISAT 1 29 Mar 14:07:31 14:11:37 55° 285° (WNW) 14:15:42 437.305
CUBEBUG 1 29 Mar 14:10:22 14:12:05 12° 293° (WNW) 14:13:34 437.445
SPROUT 29 Mar 14:17:46 14:21:40 35° 287° (WNW) 14:25:33 437.525
ITAMSAT 1 29 Mar 14:40:37 14:45:40 52° 73° (ENE) 14:50:45 435.822/435.867
SWISSCUBE 29 Mar 14:51:02 14:55:47 62° 101° (ESE) 15:00:30 437.505
BEESAT 29 Mar 14:54:00 14:58:45 61° 101° (E) 15:03:28 436.000
PCSat 29 Mar 14:55:58 15:01:01 43° 111° (ESE) 15:06:10 145.827
AIST 1 29 Mar 15:01:35 15:02:18 10° 69° (ENE) 15:03:18
O/OREOS (USA 219) 29 Mar 15:03:46 15:08:19 90° 252° (WSW) 15:12:49 437.305
KKS-1 29 Mar 15:04:54 15:06:40 12° 91° (E) 15:08:42 437.445
YUBILEINY 29 Mar 15:09:28 15:18:13 66° 280° (W) 15:27:00 435.215
JAS-2 29 Mar 15:13:02 15:16:19 14° 58° (ENE) 15:20:09 435.910
Oscar 19 29 Mar 15:15:58 15:19:53 21° 267° (W) 15:23:40 437.125/150
JUGNU 29 Mar 15:27:18 15:30:49 16° 174° (S) 15:34:22 437.505
Gurwin Techsat 1B 29 Mar 15:29:14 15:34:31 67° 258° (WSW) 15:39:50 435.225
STARS 29 Mar 15:35:58 15:38:54 18° 93° (E) 15:42:00 437.465
ITUPSAT 1 29 Mar 15:41:04 15:45:37 42° 287° (WNW) 15:50:05 437.325
AO-7 29 Mar 15:47:25 15:54:56 41° 65° (ENE) 16:02:35 29.400- 29.500
HORYU 2 29 Mar 16:10:48 16:15:12 77° 77° (ENE) 16:19:40 437.375
ITAMSAT 1 29 Mar 16:22:17 16:25:33 16° 269° (W) 16:28:34 435.822/435.867
SRMSAT 29 Mar 16:27:01 16:30:02 14° 171° (S) 16:33:05 437.500
SWISSCUBE 29 Mar 16:31:03 16:33:10 13° 295° (WNW) 16:35:02 437.505
BEESAT 29 Mar 16:33:57 16:36:08 13° 294° (WNW) 16:38:04 436.000
AIST 1 29 Mar 16:36:13 16:40:25 52° 266° (W) 16:44:33
KKS-1 29 Mar 16:39:21 16:43:40 49° 286° (WNW) 16:47:57 437.445
PCSat 29 Mar 16:40:16 16:44:40 24° 308° (NW) 16:48:58 145.827
JAS-2 29 Mar 16:53:25 17:00:10 81° 75° (ENE) 17:07:45 435.910
STARS 29 Mar 17:11:30 17:15:29 34° 288° (WNW) 17:19:26 437.465
JUGNU 29 Mar 17:15:29 17:19:08 16° 184° (S) 17:22:44 437.505
YUBILEINY 29 Mar 17:15:58 17:17:14 10° 302° (WNW) 17:17:39 435.215
RS-15 29 Mar 17:37:17 17:40:06 12° 100° (E) 17:44:06 29.354- 29.394
AO-7 29 Mar 17:40:02 17:47:45 40° 261° (W) 17:55:21 29.400- 29.500
M-CUBED/EXP-1 PRIME 29 Mar 17:55:28 17:58:43 18° 96° (E) 18:02:05 437.505
MOZHAYETS 4 29 Mar 18:14:40 18:19:21 87° 280° (W) 18:23:59
SRMSAT 29 Mar 18:14:45 18:18:29 17° 181° (S) 18:22:12 437.500
CUTE-I 29 Mar 18:41:32 18:46:46 58° 74° (ENE) 18:52:03 437.470
Cubesat XI-IV 29 Mar 18:41:44 18:47:00 59° 74° (ENE) 18:52:18 437.490
JAS-2 29 Mar 18:42:13 18:46:20 16° 275° (W) 18:50:11 435.910
BEESAT 2 29 Mar 18:54:19 18:54:43 10° 43° (NE) 18:55:19 435.950
AUBIESAT-1 29 Mar 19:04:23 19:09:15 88° 285° (WNW) 19:13:57 437.475
JUGNU 29 Mar 19:06:08 19:07:25 11° 194° (SSW) 19:08:35 437.505
PRISM 29 Mar 19:11:47 19:14:37 18° 93° (E) 19:17:33 437.425
SO-50 29 Mar 19:14:59 19:19:26 56° 116° (ESE) 19:24:06 436.795
STRAND 1 29 Mar 19:17:04 19:19:58 16° 91° (E) 19:23:07 437.568
GONETS M04 29 Mar 19:27:57 19:35:37 38° 88° (E) 19:43:29
HO-68 29 Mar 19:28:16 19:29:51 11° 56° (NE) 19:31:57 435.675
BEESAT 3 29 Mar 19:28:44 19:32:10 26° 52° (NE) 19:35:37 437.485
M-CUBED/EXP-1 PRIME 29 Mar 19:29:12 19:33:48 43° 292° (WNW) 19:38:16 437.505
RS-15 29 Mar 19:40:07 19:50:55 73° 115° (ESE) 20:01:53 29.354- 29.394
BRITE-PL 29 Mar 19:53:21 19:55:20 13° 69° (ENE) 19:57:30 437.365/2234.400
CUBESAT XI-V 29 Mar 20:02:13 20:06:52 83° 283° (WNW) 20:11:28 437.345
SRMSAT 29 Mar 20:04:14 20:06:55 13° 191° (S) 20:09:32 437.500
AIST 2 29 Mar 20:05:04 20:08:08 19° 49° (NE) 20:11:15 435.215
CUTE-I 29 Mar 20:24:10 20:27:18 15° 269° (W) 20:30:10 437.470
Cubesat XI-IV 29 Mar 20:24:29 20:27:34 15° 270° (W) 20:30:22 437.490
CANX-2 29 Mar 20:24:40 20:27:02 15° 69° (ENE) 20:29:34 2200.000
DOVE 4 29 Mar 20:27:22 20:28:41 11° 68° (ENE) 20:30:13 437.250
